• In Czech Republic
  • List of Countries
  • For 7 days
  • Water Temperature
  • Satellite Maps
  • Weather Map
  • Weather Widgets
  • user-avatar
    Login

    Hourly Weather Lommel

    Today, 23 February, Friday

    Time Temperature Precipitation Wind Pressure Humidity
    00:00 -3°C° 0 mm 4 mps 762 mmHg 67%
    01:00 -4°C° 0 mm 4 mps 762 mmHg 69%
    02:00 -4°C° 0 mm 4 mps 762 mmHg 70%
    03:00 -4°C° 0 mm 4 mps 762 mmHg 72%
    04:00 -4°C° 0 mm 4 mps 762 mmHg 73%
    05:00 -4°C° 0 mm 4 mps 762 mmHg 74%
    06:00 -4°C° 0 mm 3 mps 762 mmHg 74%
    07:00 -3°C° 0 mm 4 mps 762 mmHg 67%
    08:00 -4°C° 0 mm 5 mps 762 mmHg 60%
    09:00 -3°C° 0 mm 6 mps 762 mmHg 54%
    10:00 -2°C° 0 mm 6 mps 762 mmHg 49%
    11:00 -1°C° 0 mm 6 mps 761 mmHg 45%
    12:00 0°C° 0 mm 5 mps 761 mmHg 41%
    13:00 +1°C° 0 mm 6 mps 761 mmHg 41%
    14:00 +1°C° 0 mm 6 mps 760 mmHg 41%
    15:00 +1°C° 0 mm 6 mps 760 mmHg 41%
    16:00 -1°C° 0 mm 6 mps 760 mmHg 43%
    17:00 -1°C° 0 mm 5 mps 760 mmHg 46%
    18:00 -4°C° 0 mm 5 mps 761 mmHg 49%
    19:00 -4°C° 0 mm 5 mps 761 mmHg 47%
    20:00 -4°C° 0 mm 5 mps 761 mmHg 45%
    21:00 -5°C° 0 mm 5 mps 761 mmHg 44%
    22:00 -5°C° 0 mm 5 mps 761 mmHg 42%
    23:00 -5°C° 0 mm 5 mps 761 mmHg 40%

    Tomorrow, 24 February, Saturday

    Time Temperature Precipitation Wind Pressure Humidity
    00:00 -5°C° 0 mm 5 mps 761 mmHg 38%
    01:00 -5°C° 0 mm 5 mps 761 mmHg 37%
    02:00 -5°C° 0 mm 5 mps 761 mmHg 35%
    03:00 -5°C° 0 mm 5 mps 761 mmHg 34%
    04:00 -5°C° 0 mm 5 mps 762 mmHg 33%
    05:00 -5°C° 0 mm 5 mps 762 mmHg 32%
    06:00 -5°C° 0 mm 5 mps 762 mmHg 31%
    07:00 -4°C° 0 mm 6 mps 762 mmHg 29%
    08:00 -3°C° 0 mm 7 mps 762 mmHg 28%
    09:00 -2°C° 0 mm 8 mps 763 mmHg 26%
    10:00 -1°C° 0 mm 8 mps 763 mmHg 28%
    11:00 0°C° 0 mm 8 mps 763 mmHg 30%
    12:00 +1°C° 0 mm 8 mps 763 mmHg 32%
    13:00 +1°C° 0 mm 8 mps 763 mmHg 35%
    14:00 +1°C° 0 mm 8 mps 763 mmHg 39%
    15:00 +1°C° 0 mm 8 mps 763 mmHg 42%
    16:00 0°C° 0 mm 7 mps 763 mmHg 45%
    17:00 -1°C° 0 mm 7 mps 763 mmHg 47%
    18:00 -3°C° 0 mm 7 mps 764 mmHg 49%
    19:00 -3°C° 0 mm 7 mps 764 mmHg 49%
    20:00 -4°C° 0 mm 7 mps 764 mmHg 48%
    21:00 -4°C° 0 mm 6 mps 765 mmHg 47%
    22:00 -5°C° 0 mm 6 mps 765 mmHg 46%
    23:00 -5°C° 0 mm 6 mps 765 mmHg 45%

    Day after tomorrow, 25 February, Sunday

    Time Temperature Precipitation Wind Pressure Humidity
    00:00 -5°C° 0 mm 6 mps 765 mmHg 45%
    01:00 -6°C° 0 mm 6 mps 765 mmHg 44%
    02:00 -6°C° 0 mm 6 mps 765 mmHg 44%
    03:00 -6°C° 0 mm 6 mps 765 mmHg 44%
    04:00 -6°C° 0 mm 6 mps 766 mmHg 42%
    05:00 -6°C° 0 mm 6 mps 766 mmHg 41%
    06:00 -8°C° 0 mm 6 mps 766 mmHg 39%
    07:00 -6°C° 0 mm 6 mps 767 mmHg 36%
    08:00 -7°C° 0 mm 7 mps 767 mmHg 33%
    09:00 -6°C° 0 mm 7 mps 767 mmHg 30%
    10:00 -4°C° 0 mm 7 mps 767 mmHg 28%
    11:00 -3°C° 0 mm 7 mps 767 mmHg 25%
    12:00 -3°C° 0 mm 7 mps 767 mmHg 23%
    13:00 -3°C° 0 mm 7 mps 766 mmHg 24%
    14:00 -2°C° 0 mm 7 mps 766 mmHg 25%
    15:00 -2°C° 0 mm 7 mps 766 mmHg 26%
    16:00 -3°C° 0 mm 6 mps 766 mmHg 31%
    17:00 -4°C° 0 mm 6 mps 767 mmHg 35%
    18:00 -5°C° 0 mm 5 mps 767 mmHg 40%
    19:00 -5°C° 0 mm 5 mps 767 mmHg 43%
    20:00 -6°C° 0 mm 5 mps 767 mmHg 47%
    21:00 -6°C° 0 mm 5 mps 768 mmHg 50%
    22:00 -6°C° 0 mm 5 mps 768 mmHg 53%
    23:00 -6°C° 0 mm 5 mps 768 mmHg 56%

    26 February, Monday

    Time Temperature Precipitation Wind Pressure Humidity
    00:00 -6°C° 0 mm 5 mps 768 mmHg 59%
    01:00 -6°C° 0 mm 5 mps 768 mmHg 59%
    02:00 -7°C° 0 mm 5 mps 768 mmHg 59%
    03:00 -7°C° 0 mm 5 mps 768 mmHg 59%
    04:00 -7°C° 0 mm 5 mps 768 mmHg 59%
    05:00 -7°C° 0 mm 5 mps 768 mmHg 59%
    06:00 -7°C° 0 mm 5 mps 768 mmHg 58%
    07:00 -8°C° 0 mm 6 mps 768 mmHg 54%
    08:00 -7°C° 0 mm 7 mps 768 mmHg 50%
    09:00 -7°C° 0 mm 8 mps 768 mmHg 46%
    10:00 -6°C° 0 mm 8 mps 767 mmHg 43%
    11:00 -5°C° 0 mm 8 mps 767 mmHg 40%
    12:00 -5°C° 0 mm 8 mps 767 mmHg 37%
    13:00 -5°C° 0 mm 8 mps 766 mmHg 37%
    14:00 -4°C° 0 mm 7 mps 766 mmHg 37%
    15:00 -4°C° 0 mm 7 mps 765 mmHg 37%
    16:00 -4°C° 0 mm 6 mps 765 mmHg 41%
    17:00 -5°C° 0 mm 6 mps 765 mmHg 46%
    18:00 -6°C° 0 mm 5 mps 765 mmHg 50%
    19:00 -6°C° 0 mm 5 mps 765 mmHg 53%
    20:00 -6°C° 0 mm 5 mps 765 mmHg 56%
    21:00 -6°C° 0 mm 5 mps 765 mmHg 59%
    22:00 -7°C° 0 mm 4 mps 765 mmHg 60%
    23:00 -7°C° 0 mm 4 mps 764 mmHg 61%

    27 February, Tuesday

    Time Temperature Precipitation Wind Pressure Humidity
    00:00 -7°C° 0 mm 4 mps 764 mmHg 62%
    01:00 -7°C° 0 mm 4 mps 764 mmHg 62%
    02:00 -7°C° 0 mm 4 mps 763 mmHg 61%
    03:00 -7°C° 0 mm 4 mps 763 mmHg 61%
    04:00 -8°C° 0 mm 4 mps 763 mmHg 61%
    05:00 -8°C° 0 mm 4 mps 763 mmHg 61%
    06:00 -8°C° 0 mm 4 mps 763 mmHg 61%
    07:00 -7°C° 0 mm 5 mps 763 mmHg 56%
    08:00 -7°C° 0 mm 5 mps 763 mmHg 50%
    09:00 -6°C° 0 mm 5 mps 763 mmHg 45%
    10:00 -5°C° 0 mm 5 mps 762 mmHg 43%
    11:00 -5°C° 0 mm 6 mps 762 mmHg 41%
    12:00 -4°C° 0 mm 6 mps 761 mmHg 39%
    13:00 -4°C° 0 mm 6 mps 761 mmHg 37%
    14:00 -4°C° 0 mm 6 mps 760 mmHg 35%
    15:00 -2°C° 0 mm 5 mps 760 mmHg 32%
    16:00 -4°C° 0 mm 5 mps 760 mmHg 35%
    17:00 -4°C° 0 mm 4 mps 760 mmHg 38%
    18:00 -5°C° 0 mm 3 mps 760 mmHg 40%
    19:00 -5°C° 0 mm 3 mps 760 mmHg 42%
    20:00 -6°C° 0 mm 3 mps 760 mmHg 45%
    21:00 -6°C° 0 mm 3 mps 760 mmHg 47%
    22:00 -5°C° 0 mm 2 mps 760 mmHg 48%
    23:00 -5°C° 0 mm 2 mps 760 mmHg 50%

    28 February, Wednesday

    Time Temperature Precipitation Wind Pressure Humidity
    00:00 -6°C° 0 mm 2 mps 759 mmHg 51%
    01:00 -6°C° 0 mm 2 mps 759 mmHg 51%
    02:00 -6°C° 0 mm 2 mps 759 mmHg 51%
    03:00 -6°C° 0 mm 2 mps 759 mmHg 50%
    04:00 -6°C° 0 mm 2 mps 759 mmHg 48%
    05:00 -7°C° 0 mm 2 mps 759 mmHg 47%
    06:00 -7°C° 0 mm 2 mps 759 mmHg 45%
    07:00 -7°C° 0 mm 3 mps 759 mmHg 39%
    08:00 -8°C° 0 mm 4 mps 759 mmHg 34%
    09:00 -7°C° 0 mm 4 mps 759 mmHg 28%
    10:00 -6°C° 0 mm 5 mps 759 mmHg 25%
    11:00 -6°C° 0 mm 5 mps 759 mmHg 22%
    12:00 -5°C° 0 mm 6 mps 759 mmHg 19%
    13:00 -5°C° 0 mm 6 mps 758 mmHg 19%
    14:00 -5°C° 0 mm 6 mps 758 mmHg 19%
    15:00 -5°C° 0 mm 6 mps 758 mmHg 19%
    16:00 -6°C° 0 mm 6 mps 758 mmHg 22%
    17:00 -7°C° 0 mm 5 mps 758 mmHg 24%
    18:00 -7°C° 0 mm 5 mps 758 mmHg 27%
    19:00 -8°C° 0 mm 5 mps 757 mmHg 28%
    20:00 -8°C° 0 mm 5 mps 757 mmHg 29%
    21:00 -9°C° 0 mm 6 mps 757 mmHg 30%
    22:00 -9°C° 0 mm 6 mps 756 mmHg 31%
    23:00 -10°C° 0 mm 6 mps 756 mmHg 33%
    Show more